GW6166 Weather Reports


time (UTC)temp
C
wind
direction
speed
KPH
gust
KPH
rain 1hr
cm
rain 24hr
cm
rain mn
cm
humidity
%
barometer
mb
20260504173017 20 74 16.1 32.2 0.00 0.00 0.00 31 1008.5
20260504171519 20 276 8.0 25.7 0.00 0.00 0.00 30 1008.3
20260504081518 5 231 0.0 0.0 0.00 0.00 0.00 70 1011.3
20260504050012 6 345 1.6 3.2 0.00 0.00 0.00 59 1011.5
20260504044526 5 103 0.0 1.6 0.00 0.00 0.00 62 1011.6
20260504043029 5 108 0.0 0.0 0.00 0.00 0.00 62 1011.5
20260504041524 5 108 0.0 0.0 0.00 0.00 0.00 59 1011.4
20260504040027 5 108 0.0 0.0 0.00 0.00 0.00 63 1011.4
20260504034511 5 108 0.0 0.0 0.00 0.00 0.00 59 1011.2
20260504033027 5 108 0.0 0.0 0.00 0.00 0.00 61 1011.0
20260504031521 5 109 0.0 0.0 0.00 0.00 0.00 62 1011.0
20260504030026 5 109 0.0 0.0 0.00 0.00 0.00 59 1010.9
20260504024528 5 110 0.0 3.2 0.00 0.00 0.00 56 1011.0
20260504023015 6 106 0.0 4.8 0.00 0.00 0.00 57 1011.0
20260504021520 7 94 0.0 3.2 0.00 0.00 0.00 51 1010.9
20260504020020 8 320 0.0 4.8 0.00 0.00 0.00 50 1010.8
20260504014534 8 286 0.0 6.4 0.00 0.00 0.00 44 1010.7
20260504013030 8 122 0.0 3.2 0.00 0.00 0.00 47 1010.6
20260504011514 8 309 0.0 1.6 0.00 0.00 0.00 40 1010.4
20260504010017 8 312 0.0 3.2 0.00 0.00 0.00 45 1010.2
20260504004524 8 259 0.0 0.0 0.00 0.00 0.00 38 1010.0
20260504003025 9 309 0.0 6.4 0.00 0.00 0.00 38 1009.8
20260504001525 9 309 1.6 8.0 0.00 0.00 0.00 38 1009.7
20260504000017 10 283 0.0 1.6 0.00 0.00 0.00 43 1009.4
20260503234521 10 323 0.0 0.0 0.00 0.00 0.00 37 1009.3
20260503233021 12 314 4.8 6.4 0.00 0.00 0.00 33 1009.2
20260503231525 12 336 1.6 11.3 0.00 0.00 0.00 34 1009.1
20260503230025 12 341 3.2 16.1 0.00 0.00 0.00 33 1009.1
20260503224517 12 17 8.0 19.3 0.00 0.00 0.00 33 1009.0
20260503223027 12 341 6.4 20.9 0.00 0.00 0.00 33 1009.0
20260503221524 11 17 6.4 17.7 0.00 0.00 0.00 35 1009.0
20260503220026 12 94 4.8 16.1 0.00 0.00 0.00 36 1009.1
20260503214540 12 353 14.5 29.0 0.00 0.00 0.00 33 1009.1
20260503213017 11 328 8.0 37.0 0.00 0.00 0.00 36 1009.0
20260503211523 11 304 12.9 32.2 0.00 0.00 0.00 35 1008.9
20260503210024 10 327 9.7 25.7 0.00 0.00 0.00 37 1008.8
20260503204530 11 317 16.1 30.6 0.00 0.00 0.00 34 1008.7
20260503203025 10 303 17.7 33.8 0.00 0.00 0.00 35 1008.7
20260503201528 10 340 14.5 38.6 0.00 0.00 0.00 36 1008.5
20260503200032 10 351 17.7 27.4 0.00 0.00 0.00 36 1008.7
20260503194526 11 325 12.9 32.2 0.00 0.00 0.00 36 1008.7
20260503193033 11 15 14.5 27.4 0.00 0.00 0.00 37 1008.6
20260503191525 10 354 19.3 43.5 0.00 0.00 0.00 34 1008.6
20260503190021 10 337 17.7 32.2 0.00 0.00 0.00 35 1008.6
20260503184530 10 1 17.7 32.2 0.00 0.00 0.00 37 1008.7
20260503183028 10 326 16.1 29.0 0.00 0.00 0.00 38 1008.7
20260503181527 11 301 17.7 37.0 0.00 0.00 0.00 37 1008.6
20260503180031 10 8 17.7 43.5 0.00 0.00 0.00 39 1008.7
20260503174526 10 316 16.1 32.2 0.00 0.00 0.00 39 1008.5